Hourly Data Report for August 24, 2021

SECHELT AUT
BRITISH COLUMBIA
Current Station Operator: ECCC - MSC

49°27'28.788" N
123°42'54.945" W
86.20 m
1047172
71638
VOU

Download Data

Hourly Data (August 2021)
Hourly Data Report for August 24, 2021
TIME
LST
Temp Definition
°C
Dew Point Definition
°C
Rel Hum Definition
%
Precip. Amount Definition
mm

Wind Dir Definition
10's deg

Wind Spd Definition
km/h
Visibility Definition
km
Stn Press Definition
kPa
Hmdx Definition


Wind Chill Definition


Weather Definition


00:00 12.1 8.9 81 0.0 33 5   100.76     LegendNANA
01:00 12.2 8.7 79 0.0 31 4   100.75     LegendNANA
02:00 11.9 8.7 81 0.0 29 2   100.75     LegendNANA
03:00 12.5 8.5 77 0.0 32 7   100.77     LegendNANA
04:00 13.1 8.3 73 0.0 31 8   100.77     LegendNANA
05:00 13.2 8.4 72 0.0 34 9   100.77     LegendNANA
06:00 10.8 8.5 85 0.0 0 1   100.79     LegendNANA
07:00 14.8 9.4 70 0.0 31 7   100.80     LegendNANA
08:00 16.2 10.0 66 0.0 31 10   100.80     LegendNANA
09:00 16.9 10.6 66 0.0 26 7   100.81     LegendNANA
10:00 17.5 12.5 72 0.0 27 7   100.81     LegendNANA
11:00 18.9 12.5 66 0.0 23 4   100.78     LegendNANA
12:00 20.6 12.6 60 0.0 25 4   100.73     LegendNANA
13:00 21.0 10.8 52 0.0 26 7   100.68     LegendNANA
14:00 21.7 9.9 47 0.0 28 7   100.63     LegendNANA
15:00 22.5 10.2 46 0.0 24 4   100.58     LegendNANA
16:00 23.4 9.2 41 0.0 27 4   100.53     LegendNANA
17:00 23.4 7.9 37 0.0 28 5   100.49     LegendNANA
18:00 23.0 7.9 38 0.0 28 2   100.45     LegendNANA
19:00 17.7 13.9 79 0.0 14 4   100.46     LegendNANA
20:00 16.6 12.2 75 0.0 32 3   100.46     LegendNANA
21:00 17.3 10.5 64 0.0 32 7   100.44     LegendNANA
22:00 15.6 9.7 68 0.0 10 1   100.44     LegendNANA
23:00 15.2 10.1 71 0.0 32 6   100.45     LegendNANA

Notes on Data Quality.

Legend

  • E = Estimated
  • M = Missing
  • NA = Not Available*
  • [empty] = Indicates an unobserved value
Date modified: